National Weather Service United States Department of Commerce

Latest Hourly Weather Roundup

TOPSWRTT 000
TTAA00 KICT 151312

Wichita AWIPS Roundup
National Weather Service Wichita KS
800 AM CDT SAT AUG 15 2020

....Central Kansas....
  
CITY           SKY/WX    TMP DP  RH WIND       PRES   REMARKS
RUSSELL        SUNNY     69  64  84 NE8       30.09R                  
SALINA         SUNNY     74  65  73 NE10      30.07R                  
GREAT BEND     PTSUNNY   70  65  84 NE6       30.10R                  
ELLSWORTH      MOSUNNY   72  64  78 NE9       30.09R                  
LYONS          FAIR      72  68  86 NE12      30.08R                  
MCPHERSON      SUNNY     75  72  88 N8        30.06S                  
HAYS           SUNNY     69  63  81 MISG      30.12R                  

....South Central Kansas....
  
CITY           SKY/WX    TMP DP  RH WIND       PRES   REMARKS
HUTCHINSON     SUNNY     73  68  84 N9        30.05R                  
NEWTON         SUNNY     74  72  93 NE9       30.06R                  
KINGMAN        SUNNY     73  70  88 N8        30.07R                  
WICHITA (ICT)  PTSUNNY   79  71  76 N7        30.03R HX  82           
JABARA ARPT    SUNNY     76  73  91 NE7       30.03R                  
BEECH ARPT     FAIR      76  72  86 N8        30.04R                  
MCCONNELL AFB  SUNNY     78  70  78 NE6       30.03R                  
BENTON         FAIR      75  72  90 NE6       30.04R                  
EL DORADO      FAIR      77  73  88 N9        30.03R                  
AUGUSTA        FAIR      75  72  88 N8        30.04R                  
HARPER         NOT AVBL                                               
WELLINGTON     SUNNY     75  72  88 CALM      30.03R                  
WINFIELD       MOSUNNY   76  71  85 CALM      30.03R                  
 
....Southeast Kansas....
  
CITY           SKY/WX    TMP DP  RH WIND       PRES   REMARKS
EUREKA         NOT AVBL                                               
IOLA           FAIR      73  71  95 CALM      30.02R                  
CHANUTE        SUNNY     79  72  79 CALM      30.01R HX  82           
PARSONS        SUNNY     76  72  87 S3        30.01R                  
COFFEYVILLE    MOSUNNY   76  73  91 CALM      29.99R                  
INDEPENDENCE   MOSUNNY   75  74  98 CALM      30.01R                  
FORT SCOTT     SUNNY     75  73  94 CALM      30.00S                  
PITTSBURG      MOSUNNY   74  72  92 CALM      30.00R                  

....Western Kansas....
  
CITY           SKY/WX    TMP DP  RH WIND       PRES   REMARKS
GOODLAND       CLOUDY    66  63  90 E7        30.17R                  
HILL CITY      SUNNY     69  61  75 E10       30.13R                  
LIBERAL        CLOUDY    71  70  96 NE12      30.11R                  
GARDEN CITY    MOSUNNY   66  66 100 NE13      30.13R                  
DODGE CITY     PTSUNNY   68  66  93 NE7       30.11R                  
PRATT          CLOUDY    73  70  93 NE8       30.09R                  
MEDICINE LODGE   N/A     73  70  90 N5        30.04R                  

....Northeast Kansas....
  
CITY           SKY/WX    TMP DP  RH WIND       PRES   REMARKS
CONCORDIA      SUNNY     73  64  73 NE3       30.10R                  
TOPEKA         PTSUNNY   76  71  85 N8        30.03R                  
MANHATTAN      SUNNY     75  65  70 NE12      30.06R                  
LAWRENCE       MOSUNNY   76  74  93 CALM      30.01R                  
OLATHE         MOSUNNY   73  72  96 W5        30.02R                  
EMPORIA        SUNNY     75  73  93 N6        30.03R                  

....Oklahoma....
  
CITY           SKY/WX    TMP DP  RH WIND       PRES   REMARKS
GAGE           SUNNY     70  69  97 CALM      30.04R FOG              
PONCA CITY     SUNNY     75  71  87 NE3       30.00R                  
BARTLESVILLE   SUNNY     75  73  93 CALM      30.01R                  
TULSA          PTSUNNY   77  73  87 N5        29.99R                  
OKLAHOMA CITY  PTSUNNY   73  71  93 SE6       29.95R                  

Note: "fair" indicates few or no clouds below 12,000 feet with no
significant weather and/or obstructions to visibility.